Miscellaneous Local Product
Issued by NWS North Platte, NE

Home | Current Version | Previous Version | Text Only | Print | Product List | Glossary On
Versions: 1 2 3 4 5 6 7 8 9 10 11 12 13 14 15 16 17 18 19 20 21 22 23 24 25 26 27 28 29 30 31 32 33 34 35 36 37 38 39 40 41 42 43 44 45 46 47 48 49 50
446
AXUS43 KLBF 110910
MISLBF


WESTERN AND NORTH CENTRAL NEBRASKA HOURLY WEATHER ROUNDUP
NATIONAL WEATHER SERVICE NORTH PLATTE NE
300 AM CST THU FEB 11 2016

NOTE: "FAIR" INDICATES FEW OR NO CLOUDS BELOW 12,000 FEET WITH NO
SIGNIFICANT WEATHER AND/OR OBSTRUCTIONS TO VISIBILITY.

NOTE: STATIONS NOT REPORTING VARIABLES SUCH AS SKY/WEATHER OR
PRESSURE ARE PROVIDED BY THE NEBRASKA DEPARTMENT OF
ROADS...RAWS...AND APRS NETWORKS...AND ARE NOT UNDER
NATIONAL WEATHER SERVICE QUALITY CONTROL.

...OBSERVATIONS IN AND NEAR THE EASTERN PANHANDLE OF NEBRASKA...

CITY           SKY/WX    TMP DP  RH WIND       PRES   REMARKS
PINE RIDGE     CLOUDY    24  21  88 E6        30.09F WCI  17
CHADRON        CLEAR     25  22  88 CALM      30.09F
ALLIANCE       CLEAR     24  22  91 W6        30.09F WCI  17
SIDNEY         CLOUDY    32  24  72 NW9       30.13F WCI  24
CRESCENT LAKE    N/A     29  26  87 CALM        N/A
BIG SPRINGS      N/A     28  25  88 CALM        N/A
$$

...OBSERVATIONS IN NORTH CENTRAL NEBRASKA...

CITY           SKY/WX    TMP DP  RH WIND       PRES   REMARKS
VALENTINE      CLOUDY    27  26  96 NW3       30.16F
THEDFORD       CLOUDY    31  30  96 NW3       30.16S
AINSWORTH      CLOUDY    28  24  85 NW7       30.17R WCI  20
O`NEILL        CLOUDY    26  24  93 NE3       30.18S
ORD            CLOUDY    29  25  85 CALM      30.17S
BROKEN BOW       N/A     31  28  89 MISG      30.15F
VALENTINE NWR    N/A     26  25  97 NE6         N/A  WCI  19
BUTTE            N/A     21  19  93 NE6         N/A  WCI  13
HALSEY           N/A     30  28  94 NW3         N/A
CHAMBERS         N/A     25  22  86 CALM        N/A
EWING            N/A     22  20  92 CALM        N/A
$$

...OBSERVATIONS IN SOUTHWEST NEBRASKA AND FAR NORTHEAST COLORADO...

CITY           SKY/WX    TMP DP  RH WIND       PRES   REMARKS
HOLYOKE        FAIR      32  27  80 W3        30.15R
IMPERIAL       CLOUDY    26  23  88 CALM      30.16R
OGALLALA       CLOUDY    26  23  87 CALM      30.14F
NORTH PLATTE   CLOUDY    24  22  91 NW3       30.16S
MCCOOK         CLOUDY    30  26  85 CALM      30.16S
LEXINGTON      CLOUDY    28  25  87 CALM      30.18S
PAXTON           N/A     27  24  87 CALM        N/A
STAPLETON        N/A     28  27  94 CALM        N/A
GOTHENBURG       N/A     29  25  85 CALM        N/A
CALLAWAY         N/A     28  26  94 N7          N/A  WCI  21
$$

...OBSERVATIONS IN CENTRAL LINCOLN COUNTY AREA...

CITY           SKY/WX    TMP DP  RH WIND       PRES   REMARKS
N.P. AIRPORT   CLOUDY    24  22  91 NW3       30.16S
N.P. DOWNTOWN    N/A     29  27  90 CALM        N/A
N.P. SOUTHEAST   N/A     28  26  90 CALM        N/A
N.P. HILLCREST   N/A     28  26  92 CALM        N/A
$$

...SOME OBSERVATIONS FROM AROUND THE REGION...

CITY           SKY/WX    TMP DP  RH WIND       PRES   REMARKS
DENVER         CLOUDY    37  17  44 S6        30.18F WCI  32
LARAMIE        CLOUDY    29  15  56 SW8       30.22F WCI  21
CHEYENNE       CLOUDY    36  16  44 W9        30.16F WCI  29
SCOTTSBLUFF    CLOUDY    30  24  78 N8        30.11F WCI  22
RAPID CITY     MOCLDY    26  24  92 S9        30.06F WCI  17
BISMARCK       CLOUDY    18  12  77 SE5       30.19S WCI  11
PIERRE         CLOUDY    21  18  88 E5        30.17F WCI  15
WINNER         CLOUDY    26  21  81 CALM      30.18S
SIOUX FALLS    CLOUDY    13   5  70 E6        30.24S WCI   4
OMAHA          CLOUDY    17  11  77 N10       30.27R WCI   5
GRAND ISLAND   CLOUDY    25  23  92 NE6       30.20R WCI  18
KANSAS CITY    PTCLDY    23  20  88 NE9       30.14R WCI  13
WICHITA        CLOUDY    40  30  67 N10       30.06R WCI  33
OKLAHOMA CITY  PTCLDY    48  30  49 N7        30.00R
LIBERAL        CLOUDY    34  19  55 NW10      30.14R WCI  26
HAYS           CLEAR     34  21  60 NE9       30.15R WCI  26
GOODLAND       CLOUDY    29  23  78 W3        30.16R
$$




USA.gov is the U.S. government's official web portal to all federal, state and local government web resources and services.